Regional Weather Roundup
Issued by NWS Kansas City/Pleasant Hill, MO

Home | Current Version | Previous Version | Graphics & Text | Print | Product List | Glossary Off
Versions: 1 2 3 4 5 6 7 8 9 10 11 12 13 14 15 16 17 18 19 20 21 22 23 24 25 26 27 28 29 30 31 32 33 34 35 36 37 38 39 40 41 42 43 44 45 46 47 48 49 50

000
ASUS43 KEAX 032110
RWREAX

WEATHER ROUNDUP FOR EASTERN KANSAS AND NORTHWEST MISSOURI
NATIONAL WEATHER SERVICE KANSAS CITY/PLEASANT HILL MO
400 PM CDT MON AUG 03 2015

KSZ040-057-103>105-MOZ028-029-037-043-032200-
...KANSAS CITY METROPOLITAN AREA...

CITY           SKY/WX    TMP DP  RH WIND       PRES   REMARKS
K.C. INTL      MOSUNNY   84  69  60 E12       29.93F
K.C. DOWNTOWN  SUNNY     87  69  54 E10       29.91F HX  91
LEES SUMMIT    SUNNY     87  71  58 E9        29.94F HX  93
OLATHE - IXD   MOSUNNY   92  69  47 VRB7      29.93S HX  97
OLATHE - OJC   MOSUNNY   92  68  45 CALM      29.92S HX  96
LAWRENCE       MOSUNNY   92  70  48 E5        29.90F HX  97

$$

MOZ001>008-011>017-020>025-030>033-038>040-044>046-053-054-032200-
...NORTHERN AND CENTRAL MISSOURI...

CITY           SKY/WX    TMP DP  RH WIND       PRES   REMARKS
ST. JOSEPH     MOSUNNY   83  72  69 E10       29.92F
WARRENSBURG    SUNNY     86  68  54 NE9       29.93F
WHITEMAN AFB   MOSUNNY   87  69  54 E7        29.93F HX  91
CLINTON        NOT AVBL
SEDALIA        MOSUNNY   87  68  52 NE7       29.96F HX  90
WARSAW         NOT AVBL
CHILLICOTHE      N/A     81  65  58 SE6       29.96F
KIRKSVILLE     RAIN      74  66  76 SW6       29.96F

$$

MOZ041-047>049-056>058-063>065-088>090-097-032200-
...EASTERN AND SOUTHERN MISSOURI...

CITY           SKY/WX    TMP DP  RH WIND       PRES   REMARKS
ST. LOUIS INTL PTSUNNY   93  68  43 NW7       29.92F HX  97
SPIRIT OF STL  PTSUNNY   90  68  48 W6        29.91S HX  94
COLUMBIA       MOSUNNY   88  67  49 VRB3      29.95F HX  91
JEFFERSON CITY MOSUNNY   87  66  49 W8        29.93F
ROLLA          PTSUNNY   87  69  54 NW9       29.95F HX  91
OSAGE BEACH    PTSUNNY   88  70  55 NE9       29.95S HX  92
SPRINGFIELD    MOSUNNY   92  62  36 W7        29.96F HX  92
BRANSON        PTSUNNY   93  64  38 W5        29.98F HX  95
JOPLIN         MOSUNNY   94  62  34 SW9       29.94F HX  94
WEST PLAINS    MOSUNNY   90  63  40 W7        29.98S HX  91

$$

IAZ060-094-KSZ022-034>040-054-083-096-NEZ052-066-093-032200-
...KANSAS...SOUTHEAST NEBRASKA AND IOWA...

CITY           SKY/WX    TMP DP  RH WIND       PRES   REMARKS
TOPEKA         SUNNY     93  71  48 S8        29.89F HX 100
MANHATTAN      MOSUNNY   94  68  42 MISG      29.89F HX  98
EMPORIA        MOSUNNY   91  67  44 VRB3      29.92F HX  94
CHANUTE        MOSUNNY   93  65  39 S3        29.92F HX  95
WICHITA        PTSUNNY   91  69  48 S7        29.92F HX  96
OMAHA          PTSUNNY   82  61  48 NW5       29.97F
LINCOLN        MOSUNNY   85  66  53 NE13      29.96F
FALLS CITY     MOSUNNY   82  73  74 SE7       29.92F
LAMONI         LGT RAIN  81  65  58 CALM      29.95F
DES MOINES     MOSUNNY   83  56  39 VRB3      29.94F

$$



USA.gov is the U.S. government's official web portal to all federal, state and local government web resources and services.